SL-16 DEB, 43370

Orbit data source: Space-Track

SL-16 DEB, 43370 is space debris in SSO originally from a launch on Mon, 10 Dec 2001 UTC launched from the Tyuratam Missile And Space Complex (TTMTR). Debris objects in space refer to the collection of defunct objects orbiting the Earth. Examples of debris include non-operational satellites, rocket bodies, and fragments generated from explosions, collisions, or faulty payload assembly.

Loading next visibility...
Identifier
43370, 2001-056P
Orbit
SSO
Country
Flag of CISCIS
Related business
Manufacturer
Unknown
Mission
Spacecraft
Bus & Motor
Unknown
Mass
Unknown
Launch date (UTC)
2001-12-10 (24 years ago)
Launch vehicle
Unknown
Launch site
Tyuratam Missile And Space Complex (TTMTR)
Object type
Payload
Rocket body
Debris
Shape & HBR
Unknown
Radar Cross Section
Small (<0.1 m²)

Expand to show TLE details & history
Last TLE update: 5 days ago

TLE from 5 days ago
0 SL-16 DEB
1 43370U 01056P   25255.96216984  .00000839  00000-0  11009-2 0  9996
2 43370  99.3956 147.7896 0127663 202.0375 157.5248 13.61053384584672
Epoch: 2025-09-12T23:05Z
TLE epoch observation values (Epoch: 2025-09-12T23:05:31.474Z)
Latitude
0.00004°
Longitude
169.20609°
Altitude
1,122.28 km
Speed
7.248 km/s
True Right ascension
09h 51m 09s
True Declination
0° 00' 00"
Sunlit
Object was in daylight at epoch
Visualization orbit readout
Latitude
Unknown
Longitude
Unknown
Altitude
Unknown
Speed
Unknown
Apparent Right ascension
Unknown
Apparent Declination
Unknown
Sunlit
N/A
Visualization observer readout
Local Sidereal Time
18:30:43
Azimuth
Unknown
Elevation
Unknown
Doppler factor
Unknown
Orbital elements
Apogee altitude
1,123.7 km
Perigee altitude
934.573 km
Semi-major axis
7,407.274 km
Eccentricity
0.01277
Inclination
99.3956°
RAAN
147.7896°
Arg. of periapsis
202.0375°
True anomaly
158.07591°
Mean anomaly
157.5248°
Eccentric anomaly
157.80116°
Mean motion
3.40452 °/min
Orbital period
105.74 mins
BSTAR
0.0011009
Loading maneuver chart data...
Computing Atmospheric mass density...
Loading historical data...
Loading historical data...
Loading historical data...
Loading historical data...
Loading historical data...
Loading historical data...
Loading historical data...

Documentation

Showing up to 5 results
|